User: anonymous
Location: Wayah Bald
(35.1806°N, 83.5603°W)
Time: 09:33:09
(UTC-04:00)
Language:

Meteor 1-27 Rocket - Orbit

View from above orbital plane
View from above orbital plane
View from above satellite
View from above satellite

Ground track
Ground track

The orbit data is extracted from the following two-line orbital elements,

1 09904U 77024B   14259.02457576  .00000137  00000-0  74208-4 0   569
2 09904 081.2646 021.0389 0054344 278.9954 170.8653 14.06734778921478
Epoch (UTC): 16 September 2014 00:35:23
Eccentricity: 0.0054344
inclination: 81.2646°
perigee height: 831 km
apogee height: 910 km
right ascension of ascending node: 21.0389°
argument of perigee: 278.9954°
revolutions per day: 14.06734778
mean anomaly at epoch: 170.8653°
orbit number at epoch: 92147

The dashed part of the orbit path shows where the satellite is in the earth's shadow,  

DLR